www.pogodaiklimat.ru

Погода и климат >> Архив погоды >> Кот-д'Ивуар >> Yamoussoukro


ПОГОДА в Yamoussoukro

  • Прогноз погоды в Yamoussoukro
  • Монитор погоды в Yamoussoukro
  • Климат города

АРХИВ ПОГОДЫ в Yamoussoukro

Время (UTC), дата Ветер
(напр.,м/с)
 
Видим.   Явления Облачность Т
(С)
Тd
(С)
f
(%)
Тe
(С)
Тes
(С)
Комфортность P
(гПа)
Po
(гПа)
Тmin
(С)
Tmax
(С)
R
(мм)
R24
(мм)
S
(см)
18 11.12 ЮЗ 2 2000 м мгла ясно +26.6 +18.1 60 +31 +31 душно 1007.9 985.1 +32.2
21 11.12 штиль 0 5000 м дымка ясно +22.0 +18.7 82 +27 +27 душно 1010.6 987.4
00 12.12 штиль 0 6000 м ясно +20.3 +18.7 91 +24 +24 комфорт 1010.4 987.1
03 12.12 штиль 0 6000 м ясно +19.4 +18.3 93 +21 +21 комфорт 1008.7 985.4
06 12.12 штиль 0 3000 м дымка ясно +18.5 +17.8 96 +19 +19 1009.8 986.3 +18.0
09 12.12 ЮЗ 2 2000 м дымка ясно +23.6 +22.2 92 +31 +37 очень
душно
1011.6 988.5
12 12.12 З 1 2000 м мгла ясно +30.4 +20.9 57 +38 +57 опасность
солнечного
удара
1009.6 987.1
15 12.12 СЗ 3 2000 м мгла 5/0
[Ac trans Ci sp]
+31.8 +19.8 49 +38 +43 очень
душно
1006.9 984.5
18 12.12 штиль 0 3000 м мгла 3/0
[Ci sp]
+27.3 +21.5 71 +35 +35 очень
душно
1008.5 985.8 +32.6
21 12.12 ЮЗ 2 3000 м дымка ясно +24.0 +19.5 76 +29 +29 душно 1010.9 987.9
00 13.12 штиль 0 2000 м дымка ясно +21.2 +19.5 90 +26 +26 душно 1011.0 987.8
03 13.12 штиль 0 2000 м дымка ясно +20.6 +19.4 93 +25 +25 комфорт 1010.3 987.0
06 13.12 штиль 0 2000 м дымка ясно +19.7 +18.9 95 +22 +22 комфорт 1010.4 987.0 +19.6
09 13.12 З 1 2000 м дымка ясно +25.6 +22.8 85 +34 +41 очень
душно
1011.1 988.2
12 13.12 Ю 1 2000 м мгла 3/0
[Ac trans]
+31.7 +20.5 52 +39 +54 опасность
солнечного
удара
1008.9 986.5
15 13.12 ЮВ 5 2000 м мгла ясно +33.5 +19.3 43 +39 +44 очень
душно
1006.1 983.8
18 13.12 Ю 3 2000 м мгла ясно +29.5 +20.9 60 +37 +37 очень
душно
1007.1 984.6 +34.8
21 13.12 В 2 2000 м мгла ясно +25.1 +21.4 80 +32 +32 очень
душно
1010.4 987.5
09 14.12 ЮЗ 3 3000 м дымка {туман} 9/9 300 м
[Sc]
+24.9 +23.4 91 +33 +34 очень
душно
1011.8 988.9
12 14.12 ЮЗ 2 2000 м мгла {туман} ясно +30.4 +23.0 65 +41 +57 опасность
перегрева
1009.7 987.2
15 14.12 ЮЗ 2 2000 м мгла 1/1 450 м
[Cu hum]
+32.5 +21.9 54 +41 +50 опасность
перегрева
1007.1 984.9
18 14.12 2000 м гроза без осадков н/о +28.3 +21.5 67 +36 +36 очень
душно
1008.0 985.4 +33.5
21 14.12 штиль 0 8000 м в посл. час гроза {дождь} 3/3 300 м
[Sc]
+24.7 +23.8 95 +34 +34 очень
душно
1011.1 988.2
00 15.12 штиль 0 6000 м {гроза, дождь} ясно +24.3 +23.3 94 +33 +33 очень
душно
1011.2 988.2
06 15.12 штиль 0 3000 м дымка ясно +22.7 +21.3 92 +30 +30 очень
душно
1010.5 987.5 +22.5 6
09 15.12 ЮЗ 2 3000 м дымка {туман} 10/10 300 м
[Sc]
+24.6 +24.0 96 +34 +34 очень
душно
1011.7 988.8
12 15.12 З 1 4000 м мгла {туман} 8/8 400 м
[Cu med, cong]
+29.5 +24.0 72 +41 +45 опасность
перегрева
1009.9 987.4
15 15.12 С 4 4000 м мгла 3/3 450 м
[Cu med, cong]
+31.4 +23.4 63 +42 +47 опасность
перегрева
1006.8 984.5
18 15.12 Ю 2 2000 м мгла 4/3 330 м
[Cb cap Ci sp]
+26.5 +24.5 89 +37 +37 очень
душно
1008.0 985.3 +32.0
21 15.12 ЮЗ 1 6000 м ясно +24.9 +23.1 90 +33 +33 очень
душно
1010.1 987.2
09 16.12 ЮЗ 3 6000 м ясно +25.9 +23.4 86 +35 +40 очень
душно
1011.0 988.2
12 16.12 штиль 0 6000 м 3/3 450 м
[Cu med, cong]
+30.7 +22.4 61 +40 +55 опасность
солнечного
удара
1009.2 986.8
15 16.12 З 1 4000 м мгла 1/1 450 м
[Cu med, cong]
+32.4 +19.2 46 +38 +48 очень
душно
1006.7 984.4
18 16.12 З 1 5000 м мгла ясно +29.0 +22.5 68 +38 +38 очень
душно
1007.8 984.8 +34.3
21 16.12 штиль 0 5000 м дымка ясно +25.5 +23.4 88 +34 +34 очень
душно
1010.4 987.5
00 17.12 штиль 0 6000 м {дождь} ясно +25.0 +23.0 89 +33 +33 очень
душно
987.7
03 17.12 штиль 0 6000 м ясно +24.0 +22.5 91 +31 +31 очень
душно
1009.6 986.6
06 17.12 штиль 0 6000 м 3/3 300 м
[Sc]
+23.5 +23.0 97 +31 +31 очень
душно
1010.0 987.0 +23.5
09 17.12 ЮЗ 4 6000 м 9/9 330 м
[Cu med, cong]
+26.1 +23.6 86 +35 +36 очень
душно
1011.3 988.5
12 17.12 ЮЗ 1 8000 м 3/1 450 м
[Cu hum Ci sp]
+31.6 +22.1 57 +40 +57 опасность
солнечного
удара
1009.3 986.9
15 17.12 З 3 6000 м ясно +34.0 +20.2 44 +40 +48 очень
душно
1006.3 984.1
18 17.12 З 1 6000 м 1/0
[Ci sp]
+30.7 +20.1 53 +37 +37 очень
душно
1007.9 984.9 +35.0
21 17.12 штиль 0 6000 м ясно +24.9 +21.3 80 +31 +31 очень
душно
1009.9 987.0
00 18.12 штиль 0 6000 м 10/0 300 м
[Ac As]
+24.4 +22.3 88 +32 +32 очень
душно
1010.2 987.3
03 18.12 ЮЗ 2 6000 м 8/0 300 м
[Ac trans]
+24.7 +23.4 92 +33 +33 очень
душно
1009.0 986.1
06 18.12 СЗ 1 8000 м 9/0 300 м
[Ac trans]
+25.0 +24.3 96 +35 +35 очень
душно
1011.5 1004.1 +23.0
09 18.12 ЮЗ 4 10 км 6/6 400 м
[Cu med, cong]
+26.8 +23.3 81 +36 +38 очень
душно
1010.5 987.7
12 18.12 ЮЗ 1 10 км 5/5 450 м
[Cu med, cong]
+30.8 +22.0 59 +39 +49 очень
душно
1008.8 986.4
15 18.12 ЮЗ 1 8000 м 3/3 450 м
[Cu med, cong]
+33.2 +20.7 48 +40 +48 очень
душно
1006.0 983.7

 

Местоположение метеостанции Yamoussoukro (Кот-д'Ивуар): широта 6.90 долгота -5.35 высота над уровнем моря 213 м.

В архиве по умолчанию представлена погода в Yamoussoukro за последнюю неделю. Архивные данные за месяц целиком и за предыдущие месяцы, начиная с января 2011 года, Вы можете получить, выбрав интересующий диапазон дат из раскрывающегося списка и нажав кнопку "Ввод!".

Внимание! Время в таблицах - всемирное. Для получения местного времени необходимо прибавить поправку, которая в Yamoussoukro равна 0 ч.

Смотрите также архив погоды в соседних городах и на ближайших метеорологических станциях:

Погода в Dimbokro (Кот-д'Ивуар) (77 км)
Погода в Bouake (Кот-д'Ивуар) (98 км)
Погода в Gagnoa (Кот-д'Ивуар) (108 км)
Погода в Daloa (Кот-д'Ивуар) (124 км)
Погода в Sassandra (Кот-д'Ивуар) (231 км)
Погода в Abidjan (Кот-д'Ивуар) (242 км)
Погода в Man (Кот-д'Ивуар) (245 км)
Погода в San Pedro (Кот-д'Ивуар) (279 км)
Погода в Korhogo (Кот-д'Ивуар) (282 км)
Погода в Adiake (Кот-д'Ивуар) (288 км)

Пояснения к столбцам:

Ветер - указаны скорость ветра в м/с - средняя за 10 мин, порывы в срок и между сроками (в фигурных скобках) и направление, откуда дует ветер: С - северный, СВ - северо-восточный, В - восточный, ЮВ - юго-восточный, Ю - южный, ЮЗ - юго-западный, З - западный, СЗ - северо-западный.
Видимость - горизонтальная дальность видимости в метрах или километрах. При видимости от 1 до 10 км при отсутствии осадков обычно наблюдается дымка, при ухудшении видимости до 1 км и менее - туман. В сухую погоду видимость может ухудшаться дымом, пылью или мглою.
Явления - указаны атмосферные явления, наблюдавшиеся в срок или в последний час перед сроком; фигурными скобками обозначены явления, наблюдавшиеся между сроками (за 1-3 часа до срока); квадратными скобками обозначены град или гололедные отложения с указанием их диаметра в мм.
Облачность - указаны через наклонную черту общая и нижняя облачность в баллах и высота нижней границы облаков в метрах; квадратными скобками обозначены формы облаков: Ci - перистые, Cs - перисто-слоистые, Cc - перисто-кучевые, Ac - высококучевые, As - высокослоистые, Sc - слоисто-кучевые, Ns - слоисто-дождевые, Cu - кучевые, Cb - кучево-дождевые. Подробнее классификацию облаков см. в Атласе облаков (PDF).
T - Температура воздуха - температура, измеренная на высоте 2 м над землей.
Td - Температура точки росы - температура, при понижении до которой содержащийся в воздухе водяной пар достигнет насыщения.
f - Относительная влажность воздуха - влажноcть воздуха, измеренная на высоте 2 м над землей.
Te - Эффективная температура - температура, которую ощущает одетый по сезону человек в тени. Характеристика душности погоды. При расчете учитывается влияние влажности воздуха и скорости ветра на теплоощущения человека.
Tes - Эффективная температура на солнце - температура, которую ощущает человек, с поправкой на солнечный нагрев. Характеристика знойности погоды. Зависит от высоты солнца над горизонтом, облачности и скорости ветра. Ночью, в пасмурную погоду, а также при ветре 12 м/с и более поправка равна нулю.
P - Атмосферное давление - приведенное к уровню моря атмосферное давление.
Po - Атмосферное давление - измеренное на уровне метеостанции атмосферное давление.
Tmin - Минимальная температура - минимум температуры воздуха на высоте 2 м над землей.
Tmax - Максимальная температура - максимум температуры воздуха на высоте 2 м над землей.
R - Количество осадков - Количество выпавших осадков за период времени, мм. При наведении курсора мыши на число - период времени, за который выпало указанное количество осадков.
R24 - Количество осадков - Количество выпавших осадков за 24 часа, мм.
S - Снежный покров - Высота снежного покрова, см. При наведении курсора мыши на число - состояние снежного покрова и степень покрытия местности в баллах.